Regional Weather Roundup
Issued by NWS

Home | Current Version | Previous Version | Graphics & Text | Print | Product List | Glossary On
Versions: 1 2 3 4 5 6 7 8 9 10 11 12 13 14 15 16 17 18 19 20 21 22 23 24 25 26 27 28 29 30 31 32 33 34 35 36 37 38 39 40 41 42 43 44 45 46 47 48 49 50
043
ASUS43 KBIS 212110
RWRND

NORTH DAKOTA REGIONAL WEATHER ROUNDUP
NATIONAL WEATHER SERVICE BISMARCK ND
300 PM CST TUE NOV 21 2017

NOTE: "FAIR" INDICATES FEW OR NO CLOUDS BELOW 12,000 FEET WITH NO
SIGNIFICANT WEATHER AND/OR OBSTRUCTIONS TO VISIBILITY.


NDZ001>003-009>011-017-212200-
NORTHWEST NORTH DAKOTA

CITY           SKY/WX    TMP DP  RH WIND       PRES   REMARKS
WILLISTON      SUNNY     16   0  49 W3        30.33F
MINOT          CLOUDY    18   5  57 W13       30.32F WCI   5
MINOT AFB      MOSUNNY   15   4  60 NW13      30.31F WCI   1
$$

NDZ018>021-031>035-040>046-212200-
SOUTHWEST NORTH DAKOTA

CITY           SKY/WX    TMP DP  RH WIND       PRES   REMARKS
BISMARCK       CLOUDY    23   8  52 N8        30.37F WCI  14
DICKINSON      CLOUDY    19  -1  41 W10       30.25F WCI   7
GARRISON         N/A     15   6  67 NW16      30.32F WCI  -1
HETTINGER ARPT CLOUDY    23   1  38 W10       30.29F WCI  12
$$

NDZ004>008-012>016-024-026-027-054-212200-
NORTHEAST NORTH DAKOTA

CITY           SKY/WX    TMP DP  RH WIND       PRES   REMARKS
GRAND FORKS    MOSUNNY   22  12  65 NW16      30.32R WCI   8
GRND FRKS AFB  SUNNY     21  10  63 NW13      30.32R WCI   8
DEVILS LAKE    FLURRIES  16  10  77 W15       30.33R WCI   1
$$

NDZ022-023-025-028>030-036>039-047>053-212200-
SOUTHEAST NORTH DAKOTA

CITY           SKY/WX    TMP DP  RH WIND       PRES   REMARKS
FARGO          SUNNY     24  10  55 NW21      30.31F WCI   9
JAMESTOWN      SUNNY     18   7  62 NW15      30.33R WCI   4
$$





USA.gov is the U.S. government's official web portal to all federal, state and local government web resources and services.